Theta_e
313 311 312 313 310 312 312 313 315 313 313 312 311 311 311 311 309 309 310 311 311 311 311 310 310 310 309 310 311 312 312 313 317 320 322 323 323 323 322 321 322 321 320 319
312 312 312 311 311 312 313 314 313 312 312 310 311 311 309 309 309 310 312 311 312 311 310 309 309 309 309 310 312 313 314 317 319 320 320 321 322 322 322 320 321 319 317 314
313 314 313 313 313 313 312 313 313 314 313 311 311 311 310 310 311 312 313 314 313 312 311 309 308 308 308 312 313 314 315 317 319 320 321 321 321 321 320 319 319 314 311 308
312 313 314 313 313 313 314 312 314 314 315 315 311 316 312 311 309 308 311 312 312 311 309 310 309 309 309 312 315 315 315 316 318 320 322 322 321 320 319 319 313 309 304 302
313 313 314 314 314 313 314 312 313 313 312 312 312 312 314 311 311 311 312 312 311 312 311 310 310 309 309 313 315 315 315 316 318 318 320 320 319 319 319 312 307 302 299 297
312 312 312 313 312 312 310 312 311 310 311 314 313 313 314 312 313 312 313 315 314 312 310 309 309 308 310 314 315 315 315 316 318 319 319 318 318 319 314 305 301 298 297 296
312 312 312 311 312 311 312 313 315 315 313 316 311 312 316 313 313 311 312 315 314 312 309 308 308 307 311 314 315 315 315 315 316 317 317 317 317 316 307 302 299 298 296 295
314 314 311 310 312 313 312 312 314 314 316 315 311 314 315 310 312 314 315 313 311 309 309 308 308 307 310 313 314 314 314 314 315 315 315 314 312 306 302 299 298 297 296 295
313 313 310 310 310 313 311 313 313 316 300 309 314 313 312 309 308 309 312 308 308 308 307 307 306 307 309 312 312 313 313 314 314 315 313 309 304 301 299 298 297 296 295 295
313 315 310 310 311 311 311 310 313 311 313 315 315 314 317 314 310 309 306 306 307 306 305 306 306 306 307 311 310 311 311 312 313 313 308 304 301 298 297 297 297 296 295 294
313 315 312 310 311 312 311 312 312 312 310 313 313 318 310 313 311 310 307 310 307 307 306 306 305 305 305 309 310 311 312 313 312 308 303 302 299 296 297 297 296 295 294 294
311 315 310 311 309 308 311 313 312 315 314 313 313 319 308 310 310 311 311 311 309 307 306 305 305 305 304 306 311 311 310 309 307 304 302 300 297 296 296 295 295 295 294 294
313 316 315 315 314 309 311 311 314 313 308 316 315 319 305 307 310 310 310 309 307 306 304 304 303 304 303 304 307 307 305 304 303 302 300 298 296 295 295 295 295 294 293 293
314 314 315 320 317 312 311 310 311 314 316 316 316 318 313 309 310 309 309 309 308 307 305 304 303 303 303 303 305 304 303 301 300 299 298 297 296 295 295 295 295 294 293 292
316 318 315 315 312 311 310 313 312 314 315 318 318 316 317 314 310 312 314 310 307 306 305 305 304 303 302 302 303 302 300 299 298 297 297 296 295 295 294 294 294 293 292 291
313 317 314 316 313 313 315 313 309 312 314 315 316 316 313 314 315 312 313 313 309 309 310 308 304 303 303 302 302 302 299 298 297 296 296 295 294 294 293 293 292 292 291 291
313 314 313 319 315 314 316 316 316 315 311 312 314 314 313 310 309 311 313 312 311 313 313 310 308 305 303 303 302 301 299 297 296 295 294 294 294 294 293 292 291 291 291 290
310 313 314 318 314 318 315 311 314 315 315 315 312 312 312 311 312 312 311 311 312 312 312 311 309 306 303 302 301 300 299 297 295 294 294 294 293 293 292 292 291 291 290 290
310 310 314 317 318 314 313 307 308 311 314 312 313 314 314 314 311 311 312 313 312 313 313 313 311 307 303 301 300 298 297 296 295 294 294 294 293 293 292 292 291 291 291 290
304 310 313 313 316 319 310 302 302 308 314 300 310 311 310 307 309 313 312 312 313 313 312 311 308 304 302 301 300 298 297 296 296 295 295 294 293 293 292 292 291 293 291 293
306 305 312 313 315 312 306 298 302 312 309 294 301 303 304 303 308 309 309 309 310 309 307 306 305 304 303 301 300 298 297 297 297 296 294 294 296 293 293 291 291 293 292 292
307 309 308 309 312 312 301 299 308 303 298 301 301 302 301 303 304 306 306 307 306 305 305 304 303 303 302 301 301 299 298 299 300 300 299 296 294 293 292 291 294 294 292 288
305 305 306 307 309 299 298 299 299 300 301 300 301 302 302 301 303 305 305 304 304 304 304 305 307 308 307 305 304 305 304 302 300 300 298 298 296 296 295 295 294 291 289 288
300 298 301 304 300 297 298 297 296 297 297 296 296 298 301 301 301 304 305 306 306 307 307 307 307 307 307 305 303 300 299 298 297 296 295 294 293 293 292 291 291 290 290 289
298 298 298 299 298 297 300 301 298 298 296 295 295 296 297 299 300 299 300 301 302 302 302 301 301 300 299 298 297 296 294 294 294 294 294 293 293 292 292 292 292 291 290 289
294 298 302 303 300 301 299 300 301 303 301 297 294 296 297 297 297 295 297 298 299 298 298 297 295 293 292 292 291 291 291 291 290 290 291 291 291 292 292 292 291 290 289 288
Wind_Speed
4 3 7 14 9 4 4 4 5 4 4 6 9 11 14 20 23 25 28 32 34 35 31 29 27 25 22 21 19 18 20 23 27 28 30 29 27 25 23 19 16 16 14 14
4 8 16 5 5 6 5 5 9 6 5 7 8 12 10 8 17 32 39 39 40 39 37 34 31 27 23 20 20 20 22 26 28 30 31 30 29 27 25 20 19 17 15 16
9 7 9 9 6 6 8 8 5 8 3 3 5 9 8 10 27 30 41 46 43 47 45 39 34 29 24 24 23 22 24 30 33 31 30 31 29 27 24 24 22 21 20 18
8 7 6 6 7 9 8 7 5 5 1 6 4 9 6 6 11 10 33 39 46 44 44 42 36 32 29 26 24 24 28 30 31 34 35 31 29 29 27 27 26 25 22 19
9 7 8 6 7 10 7 3 5 2 3 1 3 5 5 5 8 12 26 34 38 44 45 47 41 34 29 28 29 29 30 31 32 31 31 32 31 31 32 31 30 27 23 18
3 3 7 8 3 7 7 5 5 4 2 5 10 9 6 7 13 7 21 29 34 38 42 43 39 34 31 32 31 31 32 32 32 33 32 32 32 34 36 35 31 27 23 19
3 5 3 6 5 3 5 7 2 3 1 8 4 7 18 5 7 11 16 27 29 33 39 43 42 38 37 38 37 35 35 34 33 33 32 32 34 34 36 34 30 26 23 19
10 6 13 7 11 8 9 9 6 7 4 5 1 8 6 10 16 23 27 26 19 29 36 43 44 41 40 41 40 39 38 37 36 34 34 35 36 37 34 30 26 22 19 18
7 7 1 1 4 13 6 9 6 1 2 2 6 8 9 8 9 13 29 15 17 28 37 42 43 41 41 43 42 42 40 38 37 37 38 38 39 37 33 29 25 22 20 18
5 3 1 1 4 4 6 7 2 1 2 6 5 7 11 5 10 13 8 12 20 25 34 40 41 41 41 43 43 43 42 40 40 40 40 40 40 37 33 30 27 24 21 18
5 4 0 3 6 12 3 5 3 5 5 5 3 8 7 10 10 8 11 24 23 27 33 38 41 40 39 43 44 45 44 44 43 44 43 43 43 39 35 31 28 24 21 19
10 1 4 8 2 2 2 6 7 5 6 6 2 17 4 7 6 12 12 13 20 26 30 35 38 38 40 43 46 46 46 46 46 45 43 45 43 41 36 33 28 24 22 21
9 5 1 4 2 1 6 8 18 3 3 15 6 13 2 1 2 3 8 9 13 20 27 32 37 40 41 44 46 47 47 47 46 45 45 45 44 41 37 33 30 27 25 23
13 6 9 12 4 6 9 9 13 18 9 8 18 29 12 5 3 4 6 7 13 18 25 31 36 41 44 46 48 49 49 48 47 46 46 45 44 41 38 35 32 29 27 25
10 8 14 21 2 4 4 16 19 22 32 12 31 17 32 14 9 18 21 15 17 22 26 33 39 43 47 50 52 52 51 50 48 48 47 46 44 41 39 36 34 31 28 27
6 6 10 20 13 8 6 8 12 20 23 20 28 27 4 8 13 11 23 27 27 29 32 35 38 43 47 52 56 56 56 53 50 50 48 46 44 42 40 37 35 33 31 30
9 6 5 13 8 8 6 32 22 16 12 20 21 35 19 7 9 22 31 33 32 33 36 39 42 44 47 51 57 60 59 54 53 51 49 47 45 44 41 39 36 34 33 32
8 11 6 9 6 10 12 7 22 27 27 27 24 29 23 20 34 39 27 26 34 35 35 38 41 42 44 47 52 56 58 57 54 52 50 49 47 44 41 39 37 35 34 33
7 7 4 6 10 5 10 6 8 10 19 20 23 29 35 38 22 38 36 43 41 38 37 37 38 41 40 41 45 51 54 54 53 53 51 48 45 43 41 40 39 36 34 33
1 9 9 4 4 7 3 2 3 6 12 4 17 23 16 8 5 17 15 20 24 28 31 32 31 32 34 35 38 43 47 48 50 50 49 47 43 41 43 41 38 33 35 33
5 2 13 12 6 4 6 4 3 6 6 2 1 2 5 6 10 16 21 22 20 19 20 20 21 24 25 25 28 34 38 41 41 42 43 43 43 45 42 39 37 34 36 39
10 9 5 4 5 8 13 5 9 4 3 1 2 4 8 11 11 13 11 10 8 8 10 12 14 15 16 19 22 26 28 25 29 31 31 34 38 39 40 39 35 36 40 38
3 5 6 8 6 2 11 6 7 8 6 5 3 4 5 6 6 5 5 7 9 11 14 16 15 14 17 19 21 21 22 20 20 18 21 25 29 31 32 36 40 39 37 36
3 0 2 3 2 2 5 9 3 4 3 4 5 6 6 7 5 6 8 9 11 13 15 15 17 16 16 16 14 13 12 15 17 19 23 27 30 32 34 34 34 33 33 34
3 4 4 5 3 4 12 13 13 8 3 1 2 3 5 7 6 6 5 5 5 6 8 8 8 9 11 13 12 11 10 10 12 14 18 21 23 25 26 28 29 30 31 31
7 7 5 5 5 2 1 7 20 18 14 6 2 1 3 4 4 4 7 8 8 9 11 12 13 14 16 16 14 12 11 11 11 13 15 17 19 21 23 25 27 29 30 31
Wind_Direction
162 122 202 210 200 175 174 194 243 250 219 183 227 240 255 229 226 235 233 232 231 233 229 228 230 231 232 231 230 230 220 202 195 192 192 193 195 192 191 192 195 178 176 176
70 225 227 157 196 224 242 248 260 293 241 186 255 251 245 216 226 231 236 236 235 232 226 225 226 227 229 228 222 217 202 192 191 195 194 194 192 187 183 188 187 180 182 173
179 211 178 170 181 189 233 220 231 232 340 257 319 270 234 243 237 239 243 247 245 237 227 221 221 224 221 218 215 206 194 191 190 189 190 190 185 182 179 186 183 176 171 166
236 222 159 170 200 174 231 211 201 239 141 255 143 284 233 246 242 226 243 240 240 236 230 225 221 221 220 215 206 197 197 195 196 195 194 194 196 190 187 185 179 170 166 162
230 184 187 189 197 173 232 177 202 233 202 348 214 281 263 215 249 247 248 242 240 240 234 221 217 220 218 210 204 197 198 195 195 196 198 196 193 193 187 178 173 166 161 163
227 178 170 194 121 169 147 85 48 51 48 261 218 208 200 202 224 245 251 251 247 238 229 221 214 214 210 202 197 195 194 196 196 196 195 195 199 192 182 175 172 167 168 165
139 211 200 166 111 71 132 120 288 317 324 247 293 225 252 285 243 223 250 259 243 233 223 213 207 206 204 199 196 200 199 200 202 200 197 198 200 196 183 177 176 173 170 167
189 271 172 196 193 168 195 164 164 216 213 270 358 242 253 230 263 258 259 264 256 225 221 212 208 207 206 201 198 202 202 203 202 200 199 199 195 187 182 179 177 174 174 175
176 259 155 182 151 163 198 212 170 350 92 360 226 279 275 253 274 260 251 260 226 222 216 212 208 209 208 203 202 203 203 203 203 201 199 193 191 188 184 178 177 179 180 177
212 276 33 143 105 33 159 164 96 15 221 255 269 270 235 230 239 252 265 231 228 221 214 213 213 213 211 208 205 204 206 206 206 200 195 192 191 189 186 185 183 185 182 180
195 167 222 120 207 170 147 190 179 141 160 195 295 261 215 213 218 237 254 256 238 224 221 218 216 215 215 210 209 207 208 208 204 199 196 195 192 190 190 188 188 187 185 188
199 197 180 201 226 270 328 208 162 162 215 235 159 263 176 171 195 208 260 257 244 235 225 222 218 215 214 212 209 209 207 205 203 201 199 196 195 194 193 192 192 191 193 194
175 184 6 307 350 31 215 210 207 106 74 224 162 257 62 313 263 275 252 258 238 231 225 221 219 217 216 213 211 208 206 204 203 202 199 198 198 197 196 197 197 197 197 197
167 167 197 223 183 146 193 203 205 208 230 213 232 260 223 201 186 253 257 253 241 242 233 227 223 220 217 214 211 208 207 206 204 202 200 201 203 203 201 202 202 202 201 203
157 234 223 244 167 149 214 211 205 208 227 204 251 242 261 242 229 250 266 254 225 227 234 236 228 224 219 216 212 211 211 208 205 204 204 205 206 206 205 205 205 204 205 208
160 239 206 257 226 217 253 252 218 227 239 236 255 261 132 183 239 250 250 248 231 235 244 246 236 228 226 222 216 212 211 210 208 208 209 208 208 208 209 209 208 207 209 212
166 190 183 246 201 206 229 236 231 231 229 223 235 246 252 259 243 248 250 248 243 243 250 245 244 239 229 226 222 217 214 211 210 210 210 210 211 211 212 212 211 213 215 218
176 189 201 247 142 215 240 185 222 223 236 232 242 255 257 246 255 263 264 262 261 261 258 254 249 245 239 230 225 222 219 216 213 212 212 213 213 214 215 216 217 218 221 224
211 178 210 216 224 295 289 196 160 167 246 231 228 245 254 260 279 277 272 271 270 269 268 269 260 246 238 231 226 222 220 219 215 216 217 218 218 219 220 220 222 224 228 227
221 228 207 184 217 219 285 279 136 107 259 214 207 232 253 139 255 272 302 295 287 274 264 256 248 237 234 230 225 223 223 222 221 222 224 224 221 227 227 227 228 232 234 243
145 184 215 227 242 261 239 176 145 147 251 288 238 244 188 192 228 275 300 297 286 271 266 248 237 235 230 222 220 220 222 224 227 227 227 229 234 232 232 230 230 237 237 244
169 173 188 192 216 240 158 119 176 180 107 14 295 277 271 261 276 284 277 270 266 250 220 214 205 203 208 209 209 215 219 220 223 229 232 234 234 233 233 231 238 240 242 240
224 197 181 187 205 2 186 15 174 157 138 191 245 299 304 281 281 263 195 163 163 170 166 167 179 191 207 211 212 218 224 223 226 224 223 225 227 232 237 236 237 239 238 237
266 121 188 81 278 237 222 217 202 218 198 247 261 260 265 263 271 244 228 212 204 201 204 206 206 208 212 208 208 211 223 227 224 226 226 227 229 231 233 235 238 240 239 238
167 129 170 272 242 291 248 229 216 214 203 253 269 249 240 240 243 234 246 223 200 181 172 173 179 174 165 163 165 173 185 200 212 219 225 229 232 234 237 238 240 239 239 240
186 179 179 212 207 136 92 222 213 222 212 209 229 177 170 186 207 181 152 150 147 144 145 144 143 146 149 151 157 168 184 201 215 225 231 234 236 238 239 239 239 238 238 242